When you browse on this site, cookies collect data to enhance your experience and personalize the content and advertising you see.
Visit our Privacy Policy to learn more. By continuing to use the site, you agree to this use of cookies and data.
  • în România
  • Lista ţărilor
  • Pe 7 zile
  • Temperatura apei
  • Hartă satelitară
  • Meteo pe hartă
  • Widget-uri
  • user-avatar
    Intrare

    Meteo pe oră la Vejle

    Astăzi, 22 Mai, Miercuri

    Timp Temperatura Precipitaţii Vânt Presiune Umiditate
    00:00 +13°C° 0 mm 4 m/s 749 mmHg 96%
    01:00 +12°C° 0 mm 4 m/s 749 mmHg 96%
    02:00 +12°C° 0 mm 5 m/s 749 mmHg 95%
    03:00 +10°C° 0 mm 5 m/s 749 mmHg 95%
    04:00 +10°C° 0 mm 5 m/s 749 mmHg 95%
    05:00 +10°C° 0.2 mm 6 m/s 749 mmHg 95%
    06:00 +9°C° 0.2 mm 6 m/s 750 mmHg 94%
    07:00 +9°C° 0.2 mm 6 m/s 750 mmHg 94%
    08:00 +9°C° 0.4 mm 6 m/s 751 mmHg 94%
    09:00 +9°C° 0.4 mm 6 m/s 751 mmHg 93%
    10:00 +9°C° 0.4 mm 6 m/s 752 mmHg 93%
    11:00 +9°C° 0.3 mm 6 m/s 752 mmHg 92%
    12:00 +10°C° 0.3 mm 6 m/s 752 mmHg 91%
    13:00 +10°C° 0.3 mm 6 m/s 753 mmHg 91%
    14:00 +10°C° 0 mm 6 m/s 753 mmHg 87%
    15:00 +11°C° 0 mm 6 m/s 753 mmHg 83%
    16:00 +11°C° 0 mm 7 m/s 753 mmHg 80%
    17:00 +11°C° 0 mm 6 m/s 753 mmHg 79%
    18:00 +12°C° 0 mm 5 m/s 754 mmHg 78%
    19:00 +10°C° 0 mm 5 m/s 754 mmHg 77%
    20:00 +10°C° 0 mm 4 m/s 754 mmHg 82%
    21:00 +7°C° 0 mm 4 m/s 754 mmHg 88%
    22:00 +7°C° 0 mm 3 m/s 754 mmHg 93%
    23:00 +7°C° 0 mm 3 m/s 754 mmHg 94%

    Mâine, 23 Mai, Joi

    Timp Temperatura Precipitaţii Vânt Presiune Umiditate
    00:00 +7°C° 0 mm 3 m/s 754 mmHg 95%
    01:00 +5°C° 0 mm 3 m/s 754 mmHg 96%
    02:00 +5°C° 0 mm 3 m/s 754 mmHg 96%
    03:00 +5°C° 0 mm 3 m/s 754 mmHg 95%
    04:00 +5°C° 0 mm 3 m/s 754 mmHg 95%
    05:00 +7°C° 0 mm 3 m/s 754 mmHg 90%
    06:00 +8°C° 0 mm 4 m/s 754 mmHg 85%
    07:00 +9°C° 0 mm 5 m/s 754 mmHg 81%
    08:00 +12°C° 0 mm 5 m/s 754 mmHg 78%
    09:00 +13°C° 0 mm 6 m/s 754 mmHg 74%
    10:00 +14°C° 0 mm 7 m/s 754 mmHg 71%
    11:00 +15°C° 0 mm 7 m/s 754 mmHg 68%
    12:00 +15°C° 0 mm 7 m/s 754 mmHg 64%
    13:00 +16°C° 0 mm 7 m/s 754 mmHg 61%
    14:00 +15°C° 0 mm 7 m/s 754 mmHg 62%
    15:00 +15°C° 0 mm 7 m/s 753 mmHg 64%
    16:00 +15°C° 0 mm 6 m/s 753 mmHg 66%
    17:00 +14°C° 0 mm 6 m/s 753 mmHg 70%
    18:00 +13°C° 0 mm 5 m/s 753 mmHg 74%
    19:00 +12°C° 0 mm 5 m/s 753 mmHg 78%
    20:00 +9°C° 0 mm 5 m/s 753 mmHg 83%
    21:00 +8°C° 0 mm 4 m/s 753 mmHg 88%
    22:00 +7°C° 0 mm 4 m/s 753 mmHg 93%
    23:00 +7°C° 0 mm 4 m/s 753 mmHg 92%

    Poimâine, 24 Mai, Vineri

    Timp Temperatura Precipitaţii Vânt Presiune Umiditate
    00:00 +7°C° 0 mm 5 m/s 752 mmHg 92%
    01:00 +7°C° 0 mm 5 m/s 752 mmHg 92%
    02:00 +7°C° 0 mm 5 m/s 752 mmHg 92%
    03:00 +8°C° 0 mm 6 m/s 751 mmHg 92%
    04:00 +8°C° 0 mm 6 m/s 751 mmHg 92%
    05:00 +9°C° 0.2 mm 6 m/s 751 mmHg 91%
    06:00 +9°C° 0.2 mm 6 m/s 751 mmHg 91%
    07:00 +10°C° 0.2 mm 6 m/s 750 mmHg 90%
    08:00 +10°C° 0.5 mm 7 m/s 750 mmHg 90%
    09:00 +9°C° 0.5 mm 7 m/s 750 mmHg 90%
    10:00 +9°C° 0.5 mm 7 m/s 750 mmHg 90%
    11:00 +10°C° 0.1 mm 7 m/s 750 mmHg 88%
    12:00 +10°C° 0.1 mm 7 m/s 750 mmHg 86%
    13:00 +11°C° 0.1 mm 7 m/s 750 mmHg 85%
    14:00 +11°C° 0.1 mm 7 m/s 750 mmHg 82%
    15:00 +12°C° 0.1 mm 7 m/s 750 mmHg 79%
    16:00 +12°C° 0.1 mm 7 m/s 750 mmHg 76%
    17:00 +11°C° 0 mm 7 m/s 750 mmHg 78%
    18:00 +11°C° 0 mm 7 m/s 750 mmHg 80%
    19:00 +10°C° 0 mm 6 m/s 750 mmHg 82%
    20:00 +10°C° 0 mm 6 m/s 750 mmHg 83%
    21:00 +9°C° 0 mm 6 m/s 750 mmHg 85%
    22:00 +9°C° 0 mm 6 m/s 750 mmHg 86%
    23:00 +9°C° 0 mm 6 m/s 750 mmHg 88%

    25 Mai, Sâmbătă

    Timp Temperatura Precipitaţii Vânt Presiune Umiditate
    00:00 +8°C° 0 mm 6 m/s 750 mmHg 90%
    01:00 +8°C° 0 mm 6 m/s 749 mmHg 92%
    02:00 +8°C° 0 mm 6 m/s 749 mmHg 91%
    03:00 +9°C° 0 mm 6 m/s 749 mmHg 90%
    04:00 +9°C° 0 mm 6 m/s 749 mmHg 89%
    05:00 +9°C° 0 mm 6 m/s 749 mmHg 87%
    06:00 +10°C° 0 mm 7 m/s 749 mmHg 86%
    07:00 +10°C° 0 mm 7 m/s 749 mmHg 85%
    08:00 +11°C° 0 mm 7 m/s 749 mmHg 82%
    09:00 +12°C° 0 mm 7 m/s 749 mmHg 78%
    10:00 +12°C° 0 mm 7 m/s 749 mmHg 75%
    11:00 +14°C° 0 mm 7 m/s 749 mmHg 73%
    12:00 +14°C° 0 mm 7 m/s 749 mmHg 72%
    13:00 +15°C° 0 mm 8 m/s 749 mmHg 70%
    14:00 +13°C° 0 mm 8 m/s 749 mmHg 72%
    15:00 +11°C° 0 mm 8 m/s 749 mmHg 75%
    16:00 +10°C° 0 mm 8 m/s 749 mmHg 77%
    17:00 +10°C° 0 mm 8 m/s 749 mmHg 77%
    18:00 +9°C° 0 mm 8 m/s 749 mmHg 76%
    19:00 +9°C° 0 mm 8 m/s 749 mmHg 75%
    20:00 +7°C° 0 mm 8 m/s 749 mmHg 74%
    21:00 +7°C° 0 mm 8 m/s 749 mmHg 73%
    22:00 +7°C° 0 mm 8 m/s 749 mmHg 72%
    23:00 +7°C° 0 mm 8 m/s 748 mmHg 72%

    26 Mai, Duminică

    Timp Temperatura Precipitaţii Vânt Presiune Umiditate
    00:00 +6°C° 0 mm 8 m/s 748 mmHg 73%
    01:00 +6°C° 0 mm 8 m/s 748 mmHg 73%
    02:00 +6°C° 0 mm 8 m/s 748 mmHg 72%
    03:00 +6°C° 0 mm 8 m/s 747 mmHg 72%
    04:00 +6°C° 0 mm 9 m/s 747 mmHg 71%
    05:00 +6°C° 0 mm 9 m/s 747 mmHg 71%
    06:00 +6°C° 0 mm 8 m/s 747 mmHg 71%
    07:00 +6°C° 0 mm 8 m/s 747 mmHg 71%
    08:00 +7°C° 0 mm 8 m/s 747 mmHg 70%
    09:00 +7°C° 0 mm 9 m/s 747 mmHg 69%
    10:00 +8°C° 0 mm 9 m/s 747 mmHg 68%
    11:00 +10°C° 0 mm 9 m/s 747 mmHg 66%
    12:00 +11°C° 0 mm 9 m/s 747 mmHg 65%
    13:00 +11°C° 0 mm 9 m/s 747 mmHg 64%
    14:00 +11°C° 0 mm 9 m/s 747 mmHg 64%
    15:00 +11°C° 0 mm 9 m/s 747 mmHg 65%
    16:00 +11°C° 0 mm 8 m/s 748 mmHg 66%
    17:00 +10°C° 0 mm 8 m/s 748 mmHg 69%
    18:00 +9°C° 0 mm 7 m/s 747 mmHg 72%
    19:00 +9°C° 0 mm 6 m/s 747 mmHg 75%
    20:00 +7°C° 0 mm 5 m/s 747 mmHg 80%
    21:00 +6°C° 0 mm 4 m/s 747 mmHg 85%
    22:00 +5°C° 0 mm 4 m/s 747 mmHg 90%
    23:00 +5°C° 0 mm 3 m/s 747 mmHg 89%

    27 Mai, Luni

    Timp Temperatura Precipitaţii Vânt Presiune Umiditate
    00:00 +5°C° 0 mm 3 m/s 747 mmHg 89%
    01:00 +5°C° 0 mm 3 m/s 747 mmHg 88%
    02:00 +7°C° 0 mm 3 m/s 746 mmHg 87%
    03:00 +7°C° 0 mm 2 m/s 746 mmHg 86%
    04:00 +7°C° 0 mm 2 m/s 746 mmHg 85%
    05:00 +8°C° 0 mm 3 m/s 746 mmHg 83%
    06:00 +8°C° 0 mm 3 m/s 746 mmHg 81%
    07:00 +9°C° 0 mm 3 m/s 746 mmHg 79%
    08:00 +10°C° 0 mm 4 m/s 746 mmHg 77%
    09:00 +10°C° 0 mm 5 m/s 746 mmHg 74%
    10:00 +10°C° 0 mm 5 m/s 747 mmHg 72%
    11:00 +10°C° 0 mm 6 m/s 747 mmHg 72%
    12:00 +11°C° 0 mm 6 m/s 747 mmHg 72%
    13:00 +11°C° 0 mm 6 m/s 747 mmHg 72%
    14:00 +12°C° 0.1 mm 5 m/s 747 mmHg 75%
    15:00 +12°C° 0.1 mm 5 m/s 747 mmHg 78%
    16:00 +12°C° 0.1 mm 5 m/s 747 mmHg 81%
    17:00 +10°C° 0.2 mm 5 m/s 747 mmHg 82%
    18:00 +10°C° 0.2 mm 5 m/s 747 mmHg 83%
    19:00 +11°C° 0.2 mm 4 m/s 747 mmHg 85%
    20:00 +10°C° 0.1 mm 4 m/s 747 mmHg 88%
    21:00 +7°C° 0.1 mm 4 m/s 748 mmHg 91%
    22:00 +6°C° 0.1 mm 4 m/s 748 mmHg 94%
    23:00 +5°C° 0 mm 3 m/s 748 mmHg 94%
    Arată mai mult